Rochester, MN

10:30 AM CDT on July 28, 2017 (GMT -0500)
Rochester International

Weather History for KRST - December, 2012

Change the Weather History Date:

Sunday, December 9, 2012

  Actual Average Record
Temperature  
Mean Temperature 31 °F 21 °F  
Max Temperature 33 °F 29 °F 52 °F (1918)
Min Temperature 29 °F 14 °F -22 °F (1947)
Degree Days  
Heating Degree Days 34 44  
Month to date heating degree days 265 376  
Since 1 July heating degree days 1719 2048  
Cooling Degree Days 0 0  
Month to date cooling degree days 0 0  
Year to date cooling degree days 888 585  
Moisture  
Dew Point 28 °F    
Average Humidity 81    
Maximum Humidity 92    
Minimum Humidity 69    
Precipitation  
Precipitation 0.35 in 0.04 in 0.35 in (2012)
Month to date precipitation 0.66 0.43  
Year to date precipitation 23.72 32.22  
Snow  
Snow 4.10 in 0.40 in 4.50 in (2009)
Month to date snowfall 4.2 3.7  
Since 1 July snowfall 4.3 10.6  
Snow Depth 4.00 in    
Sea Level Pressure  
Sea Level Pressure 29.86 in    
Wind  
Wind Speed 12 mph (East)    
Max Wind Speed 20 mph    
Max Gust Speed 25 mph    
Visibility 2 miles    
Events Fog , Rain , Snow    
T = Trace of Precipitation, MM = Missing Value Source: NWS Daily Summary

Daily Weather History Graph

Daily Weather History Graph

Search for Another Location

Airport or City:

Trip Planner

Search our weather history database for the weather conditions in past years. The results will help you decide how hot, cold, wet, or windy it might be!

Date:

Astronomy

Dec. 09, 2012 Rise Set
Actual Time 7:33 AM CST 4:32 PM CST
Civil Twilight 7:00 AM CST 5:04 PM CST
Nautical Twilight 6:23 AM CST 5:41 PM CST
Astronomical Twilight 5:48 AM CST 6:16 PM CST
Moon 3:00 AM CST (12/9) 1:44 PM CST (12/9)
Length of Visible Light 10h 04m
Length of Day
8h 59m
Waning Crescent, 18% of the Moon is Illuminated
Dec 9
Waning Crescent
Dec 13
New
Dec 19
First Quarter
Dec 28
Full
Jan 4
Last Quarter

Hourly Weather History & Observations

Time (CST) Temp. Windchill Dew Point Humidity Pressure Visibility Wind Dir Wind Speed Gust Speed Precip Events Conditions
12:17 AM 33.8 °F 24.8 °F 24.8 °F 70% 29.99 in 10.0 mi SE 12.7 mph - N/A   Overcast
12:54 AM 33.1 °F 24.9 °F 25.0 °F 72% 30.02 in 10.0 mi ESE 10.4 mph - N/A   Overcast
1:47 AM 32.0 °F 23.0 °F 24.8 °F 75% 29.98 in 1.8 mi ESE 11.5 mph - 0.00 in Snow Light Snow
1:54 AM 32.0 °F 24.2 °F 26.1 °F 79% 30.02 in 0.8 mi ESE 9.2 mph - 0.01 in Snow Light Snow
2:01 AM 32.0 °F 23.0 °F 26.6 °F 80% 29.97 in 0.8 mi ESE 11.5 mph - 0.00 in Snow Light Snow
2:10 AM 30.2 °F 21.3 °F 26.6 °F 86% 29.97 in 1.0 mi ESE 10.4 mph - 0.01 in Snow Light Snow
2:16 AM 30.2 °F 21.3 °F 26.6 °F 86% 29.97 in 1.5 mi ESE 10.4 mph - 0.01 in Snow Light Snow
2:24 AM 30.2 °F 21.3 °F 26.6 °F 86% 29.97 in 1.2 mi ESE 10.4 mph - 0.01 in Snow Light Snow
2:43 AM 32.0 °F 23.6 °F 28.4 °F 87% 29.97 in 1.8 mi ESE 10.4 mph - 0.02 in Snow Light Snow
2:52 AM 32.0 °F 24.2 °F 28.4 °F 87% 29.97 in 2.0 mi ESE 9.2 mph - 0.02 in Snow Light Snow
2:54 AM 32.0 °F 24.2 °F 28.0 °F 85% 30.01 in 2.0 mi ESE 9.2 mph - 0.02 in Snow Light Snow
3:02 AM 32.0 °F 23.6 °F 28.4 °F 87% 29.96 in 1.5 mi ESE 10.4 mph - 0.01 in Snow Light Snow
3:09 AM 32.0 °F 23.0 °F 28.4 °F 87% 29.96 in 1.2 mi ESE 11.5 mph - 0.01 in Snow Light Snow
3:29 AM 32.0 °F 23.6 °F 28.4 °F 87% 29.95 in 1.2 mi East 10.4 mph - 0.02 in Snow Light Snow
3:52 AM 32.0 °F 23.6 °F 28.4 °F 87% 29.95 in 1.8 mi ESE 10.4 mph - 0.03 in Snow Light Snow
3:54 AM 32.0 °F 22.5 °F 28.0 °F 85% 29.99 in 2.0 mi ESE 12.7 mph - 0.03 in Snow Light Snow
4:27 AM 32.0 °F 23.0 °F 28.4 °F 87% 29.96 in 4.0 mi SE 11.5 mph - 0.00 in   Overcast
4:45 AM 32.0 °F 21.6 °F 28.4 °F 87% 29.95 in 5.0 mi ESE 15.0 mph - 0.00 in Snow Light Snow
4:54 AM 32.0 °F 22.1 °F 28.0 °F 85% 29.99 in 2.0 mi SE 13.8 mph - 0.00 in Snow Light Snow
5:03 AM 32.0 °F 22.5 °F 28.4 °F 87% 29.94 in 1.5 mi ESE 12.7 mph - 0.01 in Snow Light Snow
5:54 AM 32.0 °F 20.8 °F 28.0 °F 85% 29.96 in 1.5 mi ESE 17.3 mph - 0.01 in Snow Light Snow
5:58 AM 32.0 °F 20.5 °F 28.4 °F 87% 29.91 in 2.0 mi ESE 18.4 mph - 0.00 in Snow Light Snow
6:02 AM 32.0 °F 21.2 °F 28.4 °F 87% 29.91 in 1.8 mi ESE 16.1 mph - 0.00 in Snow Light Snow
6:23 AM 32.0 °F 20.5 °F 28.4 °F 87% 29.91 in 2.0 mi ESE 18.4 mph - 0.00 in Snow Light Snow
6:54 AM 32.0 °F 21.6 °F 28.0 °F 85% 29.96 in 2.0 mi ESE 15.0 mph - 0.01 in Snow Light Snow
7:17 AM 32.0 °F 20.8 °F 28.4 °F 87% 29.91 in 1.5 mi ESE 17.3 mph - 0.00 in Snow Light Snow
7:26 AM 32.0 °F 20.8 °F 28.4 °F 87% 29.90 in 1.2 mi ESE 17.3 mph 24.2 mph 0.01 in Snow Light Snow
7:40 AM 32.0 °F 20.8 °F 28.4 °F 87% 29.89 in 1.5 mi ESE 17.3 mph - 0.01 in Snow Light Snow
7:54 AM 32.0 °F 20.8 °F 28.0 °F 85% 29.95 in 1.0 mi ESE 17.3 mph - 0.01 in Snow Light Snow
8:30 AM 32.0 °F 22.1 °F 28.4 °F 87% 29.90 in 0.8 mi ESE 13.8 mph - 0.01 in Snow Light Snow
8:54 AM 33.1 °F 23.0 °F 28.9 °F 85% 29.96 in 0.5 mi ESE 15.0 mph - 0.02 in Fog , Snow Snow
9:03 AM 32.0 °F 22.1 °F 28.4 °F 87% 29.91 in 0.5 mi ESE 13.8 mph - 0.01 in Fog , Snow Snow
9:17 AM 33.8 °F 24.3 °F 28.4 °F 81% 29.90 in 0.2 mi ESE 13.8 mph - 0.02 in Fog , Snow Snow
9:25 AM 33.8 °F 24.3 °F 28.4 °F 81% 29.90 in 0.5 mi ESE 13.8 mph - 0.02 in Fog , Snow Snow
9:37 AM 33.8 °F 24.3 °F 28.4 °F 81% 29.89 in 0.5 mi ESE 13.8 mph - 0.03 in Fog , Snow Snow
9:54 AM 33.1 °F 23.9 °F 28.9 °F 85% 29.94 in 0.5 mi ESE 12.7 mph - 0.04 in Fog , Snow Snow
10:01 AM 33.8 °F 24.3 °F 28.4 °F 81% 29.89 in 0.5 mi ESE 13.8 mph - 0.01 in Fog , Snow Snow
10:35 AM 33.8 °F 23.5 °F 28.4 °F 81% 29.87 in 1.0 mi ESE 16.1 mph - 0.02 in Snow Light Snow
10:42 AM 33.8 °F 24.8 °F 28.4 °F 81% 29.87 in 0.8 mi ESE 12.7 mph - 0.02 in Snow Light Snow
10:54 AM 33.1 °F 23.9 °F 28.9 °F 85% 29.91 in 0.8 mi ESE 12.7 mph - 0.03 in Snow Light Snow
11:04 AM 33.8 °F 23.9 °F 28.4 °F 81% 29.86 in 1.0 mi ESE 15.0 mph - 0.00 in Snow Light Snow
11:47 AM 33.8 °F 24.3 °F 28.4 °F 81% 29.83 in 1.5 mi ESE 13.8 mph - 0.01 in Snow Light Snow
11:54 AM 33.1 °F 23.9 °F 28.9 °F 85% 29.88 in 2.0 mi ESE 12.7 mph - 0.01 in Snow Light Snow
12:17 PM 33.8 °F 23.9 °F 28.4 °F 81% 29.81 in 1.5 mi East 15.0 mph - 0.00 in Snow Light Snow
12:26 PM 33.8 °F 23.5 °F 28.4 °F 81% 29.80 in 1.2 mi ESE 16.1 mph - 0.01 in Snow Light Snow
12:47 PM 33.8 °F 25.3 °F 28.4 °F 81% 29.80 in 0.8 mi ESE 11.5 mph - 0.01 in Snow Light Snow
12:54 PM 33.1 °F 24.9 °F 28.9 °F 85% 29.84 in 0.8 mi ESE 10.4 mph - 0.01 in Snow Light Snow
1:01 PM 33.8 °F 24.8 °F 28.4 °F 81% 29.79 in 1.0 mi ESE 12.7 mph - 0.00 in Snow Light Snow
1:44 PM 33.8 °F 25.3 °F 28.4 °F 81% 29.78 in 1.0 mi ESE 11.5 mph - 0.01 in Snow Light Snow
1:54 PM 33.1 °F 23.9 °F 28.9 °F 85% 29.82 in 0.8 mi ESE 12.7 mph - 0.02 in Snow Light Snow
2:28 PM 33.8 °F 27.0 °F 28.4 °F 81% 29.77 in 0.5 mi ESE 8.1 mph - 0.03 in Fog , Snow Light Snow
2:36 PM 33.8 °F 27.0 °F 28.4 °F 81% 29.77 in 0.8 mi ESE 8.1 mph - 0.03 in Snow Light Snow
2:49 PM 33.8 °F 27.0 °F 30.2 °F 87% 29.77 in 0.8 mi ESE 8.1 mph - 0.04 in Snow Light Snow
2:54 PM 33.1 °F 25.5 °F 28.9 °F 85% 29.81 in 0.8 mi East 9.2 mph - 0.04 in Snow Light Snow
3:04 PM 33.8 °F 26.4 °F 28.4 °F 81% 29.77 in 0.5 mi East 9.2 mph - 0.01 in Fog , Snow Snow
3:15 PM 33.8 °F 27.0 °F 28.4 °F 81% 29.78 in 0.2 mi East 8.1 mph - 0.02 in Fog , Snow Heavy Snow
3:28 PM 33.8 °F 27.7 °F 30.2 °F 87% 29.78 in 0.5 mi East 6.9 mph - 0.04 in Fog , Snow Snow
3:36 PM 33.8 °F 28.6 °F 30.2 °F 87% 29.78 in 0.5 mi East 5.8 mph - 0.04 in Fog , Snow Snow
3:54 PM 33.1 °F 26.1 °F 30.0 °F 89% 29.82 in 0.5 mi East 8.1 mph - 0.06 in Fog , Snow Snow
4:34 PM 33.8 °F 28.6 °F 28.4 °F 81% 29.77 in 0.5 mi East 5.8 mph - 0.01 in Snow Light Snow
4:41 PM 33.8 °F 29.6 °F 28.4 °F 81% 29.77 in 2.0 mi ENE 4.6 mph - 0.01 in Snow Light Snow
4:54 PM 32.0 °F 26.4 °F 28.9 °F 88% 29.81 in 2.5 mi ENE 5.8 mph - 0.01 in Snow Light Snow
5:17 PM 32.0 °F 25.6 °F 28.4 °F 87% 29.77 in 1.8 mi ENE 6.9 mph - 0.01 in Snow Light Snow
5:20 PM 32.0 °F 25.6 °F 28.4 °F 87% 29.77 in 1.0 mi ENE 6.9 mph - 0.01 in Snow Light Snow
5:31 PM 32.0 °F 25.6 °F 28.4 °F 87% 29.77 in 1.0 mi ENE 6.9 mph - 0.01 in Snow Light Snow
5:45 PM 32.0 °F 25.6 °F 28.4 °F 87% 29.77 in 1.5 mi ENE 6.9 mph - 0.01 in Snow Light Snow
5:54 PM 32.0 °F 26.4 °F 28.9 °F 88% 29.81 in 1.5 mi ENE 5.8 mph - 0.02 in Snow Light Snow
6:03 PM 32.0 °F 25.6 °F 28.4 °F 87% 29.76 in 2.5 mi NE 6.9 mph - 0.00 in   Overcast
6:31 PM 30.2 °F 23.4 °F 28.4 °F 93% 29.76 in 5.0 mi ENE 6.9 mph - 0.00 in   Overcast
6:47 PM 30.2 °F 23.4 °F 28.4 °F 93% 29.76 in 6.0 mi ENE 6.9 mph - 0.00 in   Overcast
6:54 PM 30.9 °F 24.3 °F 28.0 °F 89% 29.81 in 6.0 mi ENE 6.9 mph - 0.00 in   Overcast
7:24 PM 32.0 °F 26.4 °F 28.4 °F 87% 29.76 in 2.5 mi NE 5.8 mph - N/A   Overcast
7:35 PM 32.0 °F 25.6 °F 28.4 °F 87% 29.76 in 2.0 mi NNE 6.9 mph - 0.00 in Rain Light Freezing Rain
7:54 PM 32.0 °F 24.8 °F 28.0 °F 85% 29.80 in 2.5 mi NNE 8.1 mph - 0.00 in Rain Light Freezing Rain
8:09 PM 30.2 °F 21.3 °F 28.4 °F 93% 29.75 in 3.0 mi NNE 10.4 mph - 0.00 in Rain Light Freezing Rain
8:46 PM 30.2 °F 19.8 °F 26.6 °F 86% 29.76 in 3.0 mi North 13.8 mph - 0.00 in Snow Light Snow
8:54 PM 30.9 °F 21.7 °F 27.0 °F 85% 29.81 in 4.0 mi North 11.5 mph - 0.00 in   Overcast
9:08 PM 30.2 °F 21.3 °F 26.6 °F 86% 29.76 in 3.0 mi North 10.4 mph - 0.00 in Rain Light Freezing Rain
9:36 PM 30.2 °F 20.2 °F 26.6 °F 86% 29.77 in 2.5 mi North 12.7 mph - 0.00 in Snow Light Snow
9:52 PM 30.2 °F 19.8 °F 26.6 °F 86% 29.77 in 4.0 mi North 13.8 mph - 0.00 in Snow Light Snow
9:54 PM 30.0 °F 19.1 °F 26.1 °F 85% 29.81 in 4.0 mi North 15.0 mph - 0.00 in Snow Light Snow
10:46 PM 28.4 °F 17.5 °F 24.8 °F 86% 29.78 in 7.0 mi North 13.8 mph - 0.00 in   Overcast
10:54 PM 28.9 °F 17.7 °F 25.0 °F 85% 29.83 in 9.0 mi North 15.0 mph - 0.00 in   Overcast
11:54 PM 28.9 °F 16.5 °F 24.1 °F 82% 29.85 in 10.0 mi NNW 18.4 mph 24.2 mph 0.00 in   Overcast